Impacts METAR Board INFO
IDs:

KIAH - Houston/Bush Intl, TX, US

Updated at: 0233 UTC 12 Dec 2017
Potential Impact None Slight Moderate High
Time11/14Z 11/15Z 11/16Z 11/17Z 11/18Z 11/19Z 11/20Z 11/21Z 11/22Z 11/23Z 12/00Z 12/01Z 12/02Z
VIS10 10 10 10 10 10 10 10 10 10 10 10 10
CIG-- 250 -- -- -- -- -- -- -- 250 -- -- 250
CoverSCTBKNSCTSCTFEWSCTSCTSCTSCTBKNSCTSCTBKN
FltCatVFRVFRVFRVFRVFRVFRVFRVFRVFRVFRVFRVFRVFR
WX--------------------------
WDir240270310002502800250240220210200
WSpd3 4 5 3 3 4 6 5 9 4 3 5 4
WGst-- -- -- -- -- -- -- -- -- -- -- -- --
Raw hourly METARs
KIAH 111353Z 24003KT 10SM SCT250 08/03 A3033 RMK AO2 SLP271 T00830028
KIAH 111453Z 27004KT 10SM BKN250 11/04 A3032 RMK AO2 SLP266 T01060039 58003
KIAH 111553Z 31005KT 10SM SCT250 13/04 A3032 RMK AO2 SLP266 T01330039
KIAH 111653Z VRB03KT 10SM SCT250 18/03 A3031 RMK AO2 SLP263 T01780028
KIAH 111753Z VRB03KT 10SM FEW250 21/02 A3027 RMK AO2 SLP251 T02060022 10206 20061 58014
KIAH 111853Z 25004KT 10SM SCT250 22/00 A3023 RMK AO2 SLP237 T02220000
KIAH 111953Z 28006KT 10SM SCT250 24/M01 A3020 RMK AO2 SLP226 T02391011
KIAH 112053Z VRB05KT 10SM SCT250 24/M03 A3018 RMK AO2 SLP218 T02391028 56033
KIAH 112153Z 25009KT 10SM SCT250 23/M04 A3018 RMK AO2 SLP218 T02331039
KIAH 112253Z 24004KT 10SM BKN250 22/M03 A3016 RMK AO2 SLP215 T02171028
KIAH 112353Z 22003KT 10SM SCT250 18/00 A3017 RMK AO2 SLP216 T01780000 10239 20178 55003
KIAH 120053Z 21005KT 10SM SCT250 18/02 A3018 RMK AO2 SLP221 T01780017
KIAH 120153Z 20004KT 10SM BKN250 16/03 A3019 RMK AO2 SLP223 T01560028